Fairbury, Nebraska, United States (68352)
Lat: 40.14N, Lon: 97.18W
Wx Zone: NEZ088
Local Info
Past Weather Observations for Today

NOTE: This archive is for the closest National Weather Service station to Fairbury. Information may differ from the station used for current weather conditions.

Click here for Long-term Archive

Time Weather Temperature Dewpoint Humidity Pressure Winds Precip Visibility
10:15
Overcast
Light Snow
12°F / -11°C 7°F / -14°C 79% 30.09 in
(1019 mb)
NNW 19.6 mph
(NNW 32 kph)
- 3/4SM
09:55
Overcast
Light Snow
12°F / -11°C 7°F / -14°C 79% 30.09 in
(1019 mb)
NNW 16.1 mph
(NNW 26 kph)
- 3/4SM
09:35
Overcast
Light Snow
12°F / -11°C 9°F / -13°C 85% 30.06 in
(1018 mb)
NNW 18.4 mph
(NNW 30 kph)
- 3/4SM
09:15
Overcast
Light Snow
14°F / -10°C 9°F / -13°C 79% 30.06 in
(1018 mb)
NNW 18.4 mph
(NNW 30 kph)
- 3/4SM
08:55
Overcast
Light Snow
14°F / -10°C 10°F / -12°C 85% 30.04 in
(1017 mb)
NNW 17.3 mph
(NNW 28 kph)
- 3/4SM
08:35
Overcast
Light Snow
14°F / -10°C 10°F / -12°C 85% 30.04 in
(1017 mb)
NNW 21.9 mph
(NNW 35 kph)
- 1/2SM
08:15
Overcast
Snow
16°F / -9°C 12°F / -11°C 86% 30.01 in
(1016 mb)
NNW 19.6 mph
(NNW 32 kph)
- 1/2SM
07:55
Overcast
Snow
16°F / -9°C 12°F / -11°C 86% 30.01 in
(1016 mb)
NNW 18.4 mph
(NNW 30 kph)
- 1/2SM
07:35
Overcast
Light Snow
18°F / -8°C 14°F / -10°C 86% 29.98 in
(1015 mb)
NNW 16.1 mph
(NNW 26 kph)
- 1 3/4SM
07:15
Overcast
Light Snow
18°F / -8°C 14°F / -10°C 86% 29.95 in
(1014 mb)
NNW 20.7 mph
(NNW 33 kph)
- 1 1/4SM
06:55
Overcast
Light Snow
18°F / -8°C 14°F / -10°C 86% 29.95 in
(1014 mb)
NNW 17.3 mph
(NNW 28 kph)
0.01 in
(0.25 mm)
2 1/2SM
06:35
Overcast
Light Snow
19°F / -7°C 16°F / -9°C 86% 29.92 in
(1013 mb)
NNW 18.4 mph
(NNW 30 kph)
0.01 in
(0.25 mm)
2SM
06:15
Overcast
Light Snow
21°F / -6°C 18°F / -8°C 86% 29.92 in
(1013 mb)
NNW 17.3 mph
(NNW 28 kph)
- 1 3/4SM
05:55
Overcast
Light Snow
23°F / -5°C 19°F / -7°C 86% 29.89 in
(1012 mb)
NNW 19.6 mph
(NNW 32 kph)
- 1 1/2SM
05:35
Overcast
Light Snow
25°F / -4°C 21°F / -6°C 86% 29.89 in
(1012 mb)
NNW 15 mph
(NNW 24 kph)
- 1 1/2SM
05:15
Overcast
Light Snow
27°F / -3°C 23°F / -5°C 86% 29.86 in
(1011 mb)
NNW 19.6 mph
(NNW 32 kph)
- 2SM
04:55
Overcast
Light Snow
27°F / -3°C 25°F / -4°C 93% 29.83 in
(1010 mb)
NNW 18.4 mph
(NNW 30 kph)
- 1 3/4SM
04:35
Overcast
Light Snow
28°F / -2°C 27°F / -3°C 93% 29.83 in
(1010 mb)
NNW 16.1 mph
(NNW 26 kph)
- 1 1/2SM
04:15
Overcast
Light Snow
30°F / -1°C 27°F / -3°C 86% 29.8 in
(1009 mb)
NNW 13.8 mph
(NNW 22 kph)
- 1 1/4SM
03:55
Overcast
Light Snow
30°F / -1°C 28°F / -2°C 93% 29.8 in
(1009 mb)
NNW 12.7 mph
(NNW 20 kph)
- 1 1/4SM
03:35
Overcast
Light Snow
32°F / 0°C 30°F / -1°C 93% 29.8 in
(1009 mb)
NNW 11.5 mph
(NNW 19 kph)
- 1 1/2SM
03:15
Overcast
Light Snow
32°F / 0°C 30°F / -1°C 93% 29.8 in
(1009 mb)
NNW 8.1 mph
(NNW 13 kph)
- 1 1/2SM
02:55
Overcast
Light Snow
32°F / 0°C 30°F / -1°C 93% 29.8 in
(1009 mb)
NNW 8.1 mph
(NNW 13 kph)
- 1 1/4SM
02:35
Overcast
Light Snow
32°F / 0°C 30°F / -1°C 93% 29.8 in
(1009 mb)
N 6.9 mph
(N 11 kph)
- 2SM
02:15
Overcast
Light Snow
32°F / 0°C 32°F / 0°C 100% 29.8 in
(1009 mb)
N 5.8 mph
(N 9 kph)
- 2SM
01:55
Overcast
Light Snow
32°F / 0°C 32°F / 0°C 100% 29.77 in
(1008 mb)
N 5.8 mph
(N 9 kph)
- 3SM
01:35
Overcast
Light Snow
32°F / 0°C 32°F / 0°C 100% 29.77 in
(1008 mb)
N 4.6 mph
(N 7 kph)
- 3SM
01:15
Overcast
Light Snow
32°F / 0°C 32°F / 0°C 100% 29.8 in
(1009 mb)
N 3.5 mph
(N 6 kph)
- 1 1/4SM
00:55
Overcast
Light Snow
32°F / 0°C 32°F / 0°C 100% 29.8 in
(1009 mb)
Calm - 1 3/4SM
00:35
Overcast
Light Snow
32°F / 0°C 32°F / 0°C 100% 29.8 in
(1009 mb)
Calm - 1 3/4SM
00:15
Overcast
Light Snow
32°F / 0°C 32°F / 0°C 100% 29.8 in
(1009 mb)
Calm - 2SM
Time Weather Temperature Dewpoint Humidity Pressure Winds Precip Visibility


Weather for websites

WeatherForYou.com, LLC is not responsible for any damages or problems caused by this service. Current weather conditions are obtained from the closest station including government and personal stations which may have varying degrees of accuracy. Weather forecasts are derived from the NOAA NDFD. Like all things, this site belongs to Jesus Christ... He just trusts me to maintain it. If you have any questions or comments email webmaster@weatherforyou.com

Copyright © 2015, WeatherForYou.com LLC. All rights reserved.